Dewpoint
-7 -6 -3 -1 0 1 1 2 3 4 4 5 6 6 6 6 5 3 2 -0 -1 -1 -1 1 2 1 5 7 8 7 7 6 6 5 6 6 6 6 6 6 6 6 6
-7 -7 -6 -3 -1 -1 1 1 2 2 3 4 4 5 5 6 6 5 2 -0 -1 -1 -1 0 1 2 2 7 7 6 6 6 6 5 5 6 4 5 6 6 6 6 6
-8 -8 -8 -6 -4 -2 -1 -1 0 1 2 3 3 4 4 4 4 4 3 2 1 0 -0 0 1 2 2 5 6 7 6 6 5 6 5 4 4 4 5 5 5 5 6
-9 -9 -9 -8 -7 -5 -3 -2 -1 -0 1 2 3 3 3 4 4 4 4 4 2 2 1 1 0 1 2 2 5 6 6 6 5 5 5 5 3 4 4 2 3 4 5
-11 -10 -10 -10 -9 -8 -6 -5 -3 -2 -1 0 1 2 3 3 3 3 3 3 3 3 3 2 1 1 1 1 2 5 5 5 6 5 5 5 5 0 1 1 1 3 4
-12 -12 -11 -11 -11 -10 -9 -7 -6 -5 -3 -2 -1 -0 1 2 2 2 3 3 2 2 2 2 2 1 1 0 1 1 5 6 5 5 5 5 5 4 -0 -2 -1 -0 0
-13 -12 -12 -12 -12 -11 -11 -10 -9 -8 -6 -5 -3 -2 -2 -1 -0 0 2 2 2 2 2 2 1 1 1 0 -0 -0 0 1 5 5 5 5 5 3 2 -1 -0 -1 -0
-13 -13 -13 -13 -13 -12 -12 -11 -11 -10 -9 -8 -6 -5 -4 -3 -3 -3 -2 -1 0 1 1 1 1 1 0 0 -0 -1 -1 -1 -0 1 4 5 4 4 3 1 1 -0 -0
-14 -14 -15 -15 -14 -14 -14 -13 -12 -11 -11 -11 -10 -8 -7 -6 -5 -4 -4 -3 -3 -1 -0 0 1 1 1 -0 -0 -1 -1 -2 -2 -0 0 3 4 4 4 2 1 0 0
-16 -17 -17 -17 -17 -16 -16 -16 -15 -14 -13 -12 -11 -11 -10 -9 -8 -6 -5 -5 -4 -4 -3 -2 -1 0 0 -0 -0 -1 -1 -1 -2 -3 -2 2 2 3 4 3 3 2 1
-17 -17 -18 -18 -18 -18 -22 -25 -24 -21 -18 -17 -16 -13 -11 -11 -10 -10 -9 -7 -6 -5 -4 -4 -4 -3 -2 -1 -1 -1 -1 -1 -2 -2 -3 -3 2 2 2 3 3 3 3
-17 -17 -18 -18 -23 -26 -28 -29 -30 -30 -30 -28 -25 -22 -21 -16 -12 -11 -11 -10 -9 -8 -6 -5 -5 -5 -4 -4 -3 -2 -2 -2 -2 -2 -2 -2 -4 -1 0 1 2 2 3
-16 -17 -22 -25 -28 -29 -30 -30 -31 -31 -31 -32 -32 -31 -31 -28 -27 -24 -17 -12 -10 -10 -9 -7 -7 -6 -6 -6 -5 -5 -4 -3 -2 -2 -2 -2 -2 -3 -3 -2 -0 1 2
-15 -20 -27 -28 -29 -30 -30 -30 -30 -30 -30 -30 -31 -31 -32 -32 -32 -33 -32 -32 -23 -14 -10 -10 -9 -8 -7 -7 -7 -6 -5 -5 -4 -4 -3 -3 -3 -3 -3 -3 -3 -3 -3
-16 -21 -24 -27 -29 -30 -30 -30 -30 -30 -30 -30 -30 -30 -30 -31 -31 -32 -33 -33 -34 -34 -28 -15 -10 -9 -8 -8 -8 -8 -8 -6 -6 -5 -5 -4 -4 -3 -3 -3 -3 -3 -3
-18 -26 -28 -28 -28 -28 -28 -28 -29 -29 -29 -29 -29 -29 -30 -30 -30 -31 -32 -32 -33 -33 -34 -35 -30 -15 -11 -9 -9 -9 -9 -8 -7 -7 -6 -6 -5 -5 -4 -4 -4 -4 -3
-24 -26 -25 -26 -26 -27 -27 -27 -28 -28 -29 -29 -30 -30 -30 -30 -31 -31 -31 -31 -31 -31 -32 -33 -33 -34 -31 -17 -10 -10 -10 -10 -9 -8 -8 -7 -6 -6 -5 -5 -5 -5 -4
-26 -25 -25 -25 -26 -25 -26 -27 -28 -28 -29 -29 -29 -29 -29 -30 -29 -29 -30 -30 -30 -29 -29 -29 -29 -30 -32 -34 -30 -14 -11 -10 -10 -9 -9 -8 -8 -7 -7 -7 -6 -6 -5
-23 -23 -24 -24 -24 -27 -26 -26 -25 -27 -27 -25 -24 -26 -27 -26 -27 -28 -27 -27 -26 -26 -27 -23 -23 -23 -27 -30 -31 -30 -29 -21 -14 -11 -10 -9 -9 -8 -8 -8 -8 -7 -6
-20 -20 -20 -20 -24 -24 -23 -21 -23 -23 -22 -22 -23 -23 -23 -24 -25 -26 -26 -25 -24 -22 -21 -20 -19 -21 -24 -29 -28 -18 -17 -21 -20 -16 -13 -11 -10 -10 -9 -9 -8 -8 -8
-20 -20 -21 -21 -21 -20 -21 -21 -22 -23 -24 -24 -24 -24 -24 -24 -24 -24 -24 -23 -23 -21 -21 -21 -22 -21 -21 -21 -18 -16 -16 -16 -16 -15 -14 -13 -12 -11 -10 -10 -9 -9 -8
-20 -21 -21 -21 -21 -21 -21 -23 -24 -25 -25 -24 -25 -25 -25 -25 -25 -24 -24 -23 -22 -22 -22 -21 -21 -21 -21 -20 -19 -17 -16 -15 -15 -15 -14 -13 -12 -11 -11 -11 -10 -9 -9
-21 -22 -22 -22 -21 -22 -25 -25 -25 -25 -25 -25 -25 -26 -25 -25 -25 -23 -23 -23 -23 -22 -22 -21 -21 -21 -21 -20 -19 -18 -17 -16 -16 -16 -16 -14 -14 -13 -12 -11 -11 -10 -10
-22 -22 -22 -21 -22 -25 -25 -25 -25 -25 -25 -25 -25 -25 -24 -24 -23 -24 -23 -23 -23 -23 -23 -23 -23 -23 -21 -19 -19 -18 -19 -19 -17 -17 -17 -16 -17 -16 -15 -14 -12 -11 -11
-22 -22 -22 -23 -25 -25 -25 -25 -25 -24 -25 -25 -24 -24 -24 -24 -23 -23 -23 -22 -22 -22 -21 -20 -20 -20 -20 -20 -19 -18 -17 -17 -16 -15 -15 -14 -14 -15 -16 -20 -22 -15 -13
-22 -22 -23 -24 -24 -24 -24 -25 -25 -25 -24 -24 -24 -24 -23 -23 -24 -23 -23 -23 -22 -21 -21 -20 -20 -20 -20 -19 -19 -19 -18 -17 -17 -16 -16 -17 -17 -15 -13 -14 -14 -16 -15
Wind_Speed
22 25 28 27 25 21 20 15 11 4 5 6 5 5 9 9 10 12 14 12 11 12 12 12 12 12 12 12 13 14 14 19 18 17 18 19 21 22 23 24 23 23 23
24 25 27 29 30 28 25 21 18 12 6 3 5 7 7 4 8 10 14 14 15 15 14 14 13 13 13 12 17 18 20 20 16 16 15 8 19 26 27 26 26 28 24
23 25 26 28 29 30 29 27 23 18 12 7 7 8 6 6 11 13 15 15 15 16 15 15 16 15 15 13 17 18 22 22 20 20 13 8 10 6 18 29 28 26 28
20 22 24 26 28 29 27 25 24 21 17 12 6 4 4 4 3 2 4 10 12 14 15 16 17 17 17 17 15 18 22 24 24 23 24 19 10 4 7 11 24 28 26
20 22 23 23 25 26 26 25 24 22 20 17 13 6 4 9 10 6 3 3 8 11 14 15 16 17 18 19 19 18 19 23 26 26 26 28 28 17 12 8 12 21 25
18 20 20 20 22 23 24 25 24 23 21 20 17 14 9 5 8 12 11 9 7 2 7 13 15 17 19 20 21 22 21 22 24 29 23 21 26 26 21 14 10 14 20
18 20 22 22 23 25 25 25 25 24 23 21 19 17 14 11 9 7 7 10 11 12 14 14 11 15 18 21 22 24 25 26 25 27 30 25 23 20 16 15 12 9 14
17 19 20 21 22 23 24 25 25 24 23 21 20 19 17 15 14 12 10 9 11 14 15 16 17 16 17 20 23 25 26 27 27 30 32 31 26 27 26 23 15 15 14
16 17 18 19 20 21 22 23 24 23 22 22 20 19 18 17 16 15 14 13 13 15 16 18 19 20 21 18 23 26 27 28 28 28 31 35 35 26 31 31 28 24 16
15 16 17 19 19 19 20 21 22 22 23 22 20 19 19 18 18 18 17 16 16 16 17 18 20 21 22 23 23 24 27 29 31 31 32 32 37 38 31 35 34 33 32
15 16 16 16 17 18 20 21 22 22 23 22 22 22 20 19 18 18 19 20 19 19 18 18 18 18 21 23 26 25 20 24 30 32 34 34 31 35 41 43 41 37 36
13 15 16 17 20 22 23 23 23 23 23 23 22 21 22 21 21 20 19 19 20 21 21 19 18 17 18 19 21 25 27 25 22 25 29 33 35 35 35 37 43 44 42
12 16 20 21 24 24 25 24 24 24 23 22 23 23 22 22 22 22 22 20 19 19 20 21 20 18 15 16 17 18 21 26 28 26 22 25 30 34 37 40 38 39 41
12 19 23 24 24 25 26 26 25 24 25 24 23 23 23 24 25 24 23 23 22 21 18 18 19 19 17 15 15 17 18 18 21 25 30 27 22 23 27 34 37 38 38
13 21 24 25 26 26 26 26 26 26 27 27 27 26 26 25 25 25 25 25 23 23 23 21 18 17 18 17 16 15 18 17 18 18 20 24 29 31 26 25 24 32 35
17 24 25 26 27 28 28 29 27 27 28 28 29 28 28 28 28 27 26 26 25 25 24 23 23 21 18 17 18 19 21 20 18 18 18 19 20 22 26 31 29 28 30
24 26 25 25 26 26 27 29 29 28 27 29 29 29 29 30 29 28 28 28 27 26 25 25 24 24 24 20 19 19 22 25 24 22 20 20 20 20 21 22 25 28 30
26 26 25 26 25 25 26 27 27 26 27 27 27 26 28 29 29 29 29 29 28 27 26 26 25 26 25 23 23 23 24 24 24 25 25 24 22 20 19 21 23 25 27
25 24 24 25 24 25 25 25 26 26 25 25 26 27 27 28 28 29 30 29 28 28 28 25 26 27 27 24 23 24 25 26 26 24 24 24 25 23 20 20 20 22 26
22 23 23 22 25 24 24 23 26 23 22 21 23 24 24 26 27 29 29 28 27 27 25 25 24 27 29 27 24 21 22 25 25 22 24 24 22 22 22 18 19 21 21
22 21 23 23 22 21 20 23 21 21 21 23 24 24 23 24 24 25 25 26 26 25 26 26 27 26 26 25 22 21 21 21 21 21 21 21 21 21 19 20 22 19 17
22 21 21 21 20 20 20 22 22 22 23 23 23 23 23 23 22 24 24 24 24 26 26 25 26 24 22 22 21 20 21 22 25 26 26 24 20 18 20 22 24 24 20
21 20 21 22 21 19 20 22 23 23 23 23 23 23 23 22 22 22 24 24 23 24 26 26 27 27 23 23 21 22 22 22 24 26 25 25 24 24 25 26 21 22 22
21 21 22 22 23 22 22 22 23 22 23 24 24 24 23 23 22 21 21 22 24 24 25 27 29 31 30 29 26 22 22 22 23 22 23 22 22 25 28 29 27 24 24
21 21 22 24 25 24 24 23 23 23 24 25 26 25 23 22 24 23 21 23 25 23 28 31 32 32 33 31 27 28 30 30 30 28 31 31 32 30 26 24 25 28 28
22 23 25 25 26 26 27 25 23 23 24 26 25 25 26 26 25 25 27 24 25 27 27 28 29 32 32 32 32 32 31 31 30 31 32 33 31 26 24 25 21 20 20
Wind_Direction
28 29 30 34 35 32 29 20 7 330 247 195 169 281 269 264 260 256 252 250 253 256 247 243 241 237 227 234 211 206 214 223 234 228 239 242 242 242 242 241 241 244 245
27 26 28 32 35 36 35 30 26 14 353 271 219 214 218 250 245 260 260 259 255 255 252 248 246 247 236 226 231 223 218 222 233 230 237 258 259 247 243 244 246 244 240
25 22 24 25 32 35 35 32 29 24 10 341 278 270 254 302 310 297 279 269 262 260 257 253 250 249 244 229 244 232 231 234 233 229 222 233 243 285 255 242 241 241 237
27 22 20 22 26 31 33 34 32 30 27 14 348 294 253 220 68 311 281 281 273 264 262 258 256 254 251 244 235 249 237 239 239 239 231 228 222 235 269 265 235 242 233
25 23 21 19 16 21 27 31 32 30 32 29 24 10 259 247 251 251 125 9 304 275 266 264 261 258 255 252 243 239 242 238 243 243 243 237 241 247 245 268 262 236 230
26 24 21 19 18 17 17 19 25 28 28 26 27 25 15 337 271 260 263 237 211 234 304 275 261 261 258 255 252 246 244 239 237 242 244 238 237 242 245 248 266 258 242
23 19 17 17 14 14 14 16 16 16 20 21 20 19 17 10 360 330 292 275 263 246 239 238 249 262 262 259 256 253 251 247 239 235 239 238 233 230 243 230 242 234 232
23 20 16 14 13 12 11 12 12 12 11 12 12 12 8 4 0 355 341 314 284 272 263 254 249 241 259 261 261 257 254 254 248 245 238 237 237 240 233 229 227 241 241
17 15 13 12 10 9 9 8 8 7 8 8 5 2 359 355 352 347 340 330 311 292 280 268 256 248 240 246 261 261 259 255 252 251 248 240 240 238 241 238 234 236 240
13 10 9 7 7 6 4 4 5 5 2 2 2 0 356 352 345 338 332 327 323 316 309 291 276 261 250 242 236 251 256 257 255 252 250 248 245 242 238 246 245 244 243
8 5 3 2 1 1 1 1 1 359 358 359 358 355 353 350 346 340 334 328 322 316 313 313 312 301 282 263 248 237 238 256 254 251 251 249 247 250 245 246 249 249 249
2 1 359 356 355 356 356 356 355 354 353 351 350 349 347 346 345 341 338 333 328 322 315 311 308 309 309 300 284 263 247 238 238 252 246 250 248 243 250 249 247 250 249
353 354 353 352 350 350 349 348 348 346 345 344 342 340 339 338 338 337 336 334 331 328 322 313 307 306 305 305 301 296 279 258 249 239 238 248 249 246 245 245 245 246 247
346 345 345 344 343 342 341 340 340 340 338 337 336 334 332 331 331 330 328 327 326 324 323 321 314 304 298 297 302 300 295 285 273 260 250 238 231 242 245 247 243 243 244
339 340 338 336 336 335 333 333 334 334 333 332 331 330 328 326 324 323 322 321 319 318 316 315 313 310 300 293 293 305 300 290 282 274 266 260 255 244 234 232 240 241 237
331 333 331 330 330 331 330 329 330 329 328 327 326 326 324 324 324 323 321 318 316 315 311 308 307 305 303 298 287 288 293 290 288 282 272 266 258 253 251 247 240 237 232
328 326 325 324 324 324 325 323 324 325 324 322 322 322 321 321 322 321 320 318 317 315 312 308 305 300 297 296 290 286 287 285 283 283 281 274 267 263 255 248 246 245 244
321 320 320 320 321 320 320 319 322 323 322 322 320 319 319 319 320 319 318 317 316 314 311 309 307 303 298 296 293 290 288 287 284 280 279 277 273 267 266 265 257 250 244
317 317 318 319 318 318 317 318 321 322 322 323 318 318 319 317 316 316 316 317 314 311 311 309 305 300 299 299 297 296 290 286 287 285 279 275 273 270 266 263 264 265 256
318 317 318 311 315 321 320 318 318 320 320 314 315 314 314 313 312 312 311 312 309 309 308 305 302 299 299 299 298 299 294 289 289 281 289 285 275 269 264 266 269 263 264
315 316 309 316 316 312 315 310 312 312 312 311 312 312 311 310 310 308 308 307 308 307 304 300 302 302 302 304 301 298 295 292 290 284 281 279 287 283 268 260 251 255 266
315 314 311 310 311 311 310 309 308 310 309 310 309 310 310 309 307 307 307 308 304 302 305 304 304 305 302 301 301 298 292 289 284 280 274 272 274 271 276 278 261 251 252
309 310 308 308 309 310 307 304 305 307 308 307 307 308 307 307 307 308 306 305 307 303 304 305 304 305 304 300 298 296 293 290 285 283 281 278 272 273 268 264 263 266 260
307 307 307 307 306 307 305 302 304 305 305 304 305 305 305 307 304 302 304 302 304 304 304 304 305 307 305 304 305 299 294 294 294 291 289 284 278 270 266 263 259 257 249
303 304 305 301 301 304 303 302 303 304 302 302 301 301 303 301 301 299 299 300 297 300 302 300 299 298 297 297 293 291 291 290 290 288 285 286 282 280 277 272 265 253 252
302 300 297 298 299 300 300 300 300 300 298 297 299 296 297 296 298 300 298 295 293 295 295 294 293 294 290 290 288 286 285 285 283 281 280 279 279 276 271 261 256 250 246
Height
1534 1529 1525 1522 1519 1516 1512 1509 1509 1508 1509 1510 1511 1516 1518 1520 1521 1521 1521 1522 1523 1523 1524 1525 1526 1527 1529 1529 1531 1533 1534 1534 1535 1539 1540 1541 1542 1543 1544 1546 1546 1548 1549
1535 1531 1528 1524 1521 1518 1515 1513 1511 1510 1509 1510 1512 1512 1514 1517 1518 1519 1519 1520 1521 1522 1523 1523 1524 1525 1526 1528 1528 1530 1531 1532 1534 1537 1538 1539 1539 1538 1539 1541 1542 1543 1545
1538 1535 1531 1528 1525 1521 1517 1515 1514 1512 1511 1510 1510 1512 1514 1516 1517 1517 1517 1518 1519 1520 1521 1521 1522 1523 1524 1525 1525 1527 1528 1530 1532 1534 1537 1538 1536 1535 1532 1534 1536 1536 1539
1542 1539 1535 1531 1527 1525 1523 1520 1517 1514 1512 1511 1510 1511 1513 1514 1513 1514 1515 1516 1516 1517 1518 1519 1519 1520 1521 1522 1524 1524 1525 1526 1528 1531 1532 1534 1534 1534 1533 1529 1529 1531 1533
1545 1543 1540 1537 1534 1529 1526 1524 1521 1518 1514 1512 1511 1511 1511 1512 1512 1512 1511 1514 1515 1514 1515 1516 1516 1517 1517 1518 1520 1521 1521 1523 1525 1526 1528 1530 1532 1532 1532 1530 1527 1527 1528
1547 1546 1543 1541 1537 1534 1530 1526 1523 1520 1517 1515 1513 1511 1510 1509 1510 1510 1511 1510 1509 1510 1512 1512 1512 1513 1514 1514 1515 1516 1517 1518 1520 1522 1524 1525 1527 1527 1529 1529 1528 1525 1524
1549 1547 1544 1541 1539 1535 1531 1528 1525 1522 1520 1518 1515 1513 1511 1510 1508 1507 1507 1507 1507 1507 1506 1505 1507 1509 1510 1510 1511 1511 1511 1512 1514 1517 1519 1520 1521 1524 1525 1526 1525 1524 1523
1551 1549 1547 1544 1541 1538 1534 1530 1527 1524 1522 1519 1517 1515 1513 1511 1509 1507 1505 1504 1503 1503 1502 1502 1503 1502 1505 1505 1506 1506 1507 1507 1508 1509 1513 1515 1515 1518 1519 1520 1522 1521 1521
1553 1552 1549 1547 1544 1540 1536 1532 1529 1526 1523 1520 1518 1516 1514 1512 1510 1508 1506 1503 1501 1499 1498 1497 1497 1497 1497 1499 1501 1501 1501 1502 1503 1503 1504 1507 1509 1511 1512 1513 1515 1516 1517
1555 1553 1550 1547 1545 1542 1538 1535 1531 1528 1525 1521 1519 1516 1514 1512 1510 1508 1505 1502 1500 1497 1495 1493 1492 1491 1491 1491 1490 1493 1495 1495 1495 1496 1497 1499 1501 1504 1504 1505 1507 1509 1510
1555 1553 1551 1548 1545 1542 1538 1535 1531 1528 1525 1522 1519 1516 1514 1511 1508 1506 1504 1501 1498 1495 1493 1491 1488 1487 1485 1484 1484 1484 1485 1488 1488 1488 1489 1490 1493 1493 1495 1497 1499 1501 1503
1555 1553 1550 1547 1543 1540 1537 1534 1531 1528 1525 1522 1519 1516 1513 1510 1507 1504 1501 1498 1496 1494 1491 1489 1486 1485 1483 1480 1479 1478 1478 1478 1478 1481 1482 1481 1484 1485 1486 1487 1489 1492 1494
1555 1552 1549 1545 1542 1539 1536 1533 1530 1527 1524 1521 1518 1514 1511 1508 1505 1502 1499 1497 1493 1490 1489 1487 1484 1482 1479 1478 1476 1473 1472 1471 1472 1471 1472 1475 1475 1476 1476 1478 1479 1481 1484
1554 1551 1547 1545 1542 1538 1535 1531 1528 1525 1522 1518 1515 1512 1509 1506 1502 1499 1497 1494 1491 1488 1485 1482 1481 1478 1476 1475 1472 1470 1468 1466 1465 1464 1465 1465 1466 1468 1469 1470 1470 1472 1474
1554 1551 1547 1544 1540 1537 1533 1530 1527 1523 1519 1515 1511 1508 1505 1502 1499 1496 1493 1490 1487 1484 1482 1479 1477 1474 1473 1471 1469 1467 1464 1462 1461 1460 1459 1458 1459 1460 1460 1462 1463 1464 1465
1553 1550 1546 1542 1538 1534 1530 1526 1523 1520 1516 1512 1508 1504 1501 1497 1494 1491 1488 1485 1483 1480 1477 1474 1472 1470 1468 1467 1465 1464 1460 1458 1457 1456 1454 1454 1453 1451 1452 1454 1456 1457 1458
1550 1547 1543 1540 1536 1532 1528 1523 1520 1517 1513 1509 1505 1501 1497 1493 1490 1486 1483 1480 1477 1474 1471 1469 1466 1464 1462 1461 1459 1458 1455 1453 1453 1451 1449 1448 1447 1446 1445 1445 1446 1449 1450
1547 1543 1539 1535 1532 1528 1524 1520 1517 1513 1509 1505 1501 1498 1494 1489 1485 1482 1479 1475 1472 1469 1466 1463 1461 1458 1456 1455 1453 1451 1449 1448 1446 1445 1444 1443 1441 1440 1440 1439 1438 1440 1442
1542 1538 1535 1531 1527 1524 1520 1516 1512 1509 1506 1502 1498 1494 1490 1486 1482 1478 1474 1471 1467 1464 1461 1459 1455 1453 1450 1449 1447 1445 1443 1441 1439 1439 1437 1436 1435 1434 1434 1433 1433 1433 1433
1538 1534 1530 1527 1523 1519 1516 1512 1508 1505 1502 1499 1494 1490 1486 1482 1477 1473 1469 1466 1463 1459 1457 1454 1451 1447 1444 1443 1441 1440 1438 1434 1433 1433 1431 1430 1428 1427 1428 1428 1428 1427 1428
1533 1530 1526 1522 1519 1515 1512 1508 1504 1501 1498 1493 1489 1485 1481 1477 1474 1470 1466 1462 1459 1456 1452 1449 1445 1442 1440 1437 1436 1435 1433 1431 1429 1427 1426 1425 1423 1421 1421 1422 1422 1421 1422
1528 1525 1521 1517 1514 1511 1508 1503 1500 1496 1492 1487 1483 1480 1476 1473 1469 1465 1461 1458 1455 1450 1447 1443 1439 1437 1435 1433 1431 1430 1429 1427 1424 1421 1419 1418 1417 1417 1416 1415 1415 1415 1415
1524 1521 1517 1513 1510 1507 1504 1499 1495 1491 1486 1482 1478 1474 1471 1467 1464 1460 1457 1452 1449 1446 1442 1439 1435 1431 1429 1427 1425 1424 1422 1421 1418 1414 1412 1411 1411 1411 1410 1408 1409 1409 1407
1519 1516 1512 1508 1505 1502 1498 1494 1489 1485 1481 1476 1472 1469 1465 1461 1459 1455 1452 1448 1445 1441 1438 1434 1430 1426 1423 1421 1419 1417 1415 1413 1411 1408 1405 1403 1402 1402 1401 1401 1401 1402 1401
1514 1511 1507 1503 1499 1495 1491 1487 1483 1480 1475 1471 1466 1463 1459 1456 1452 1449 1446 1443 1440 1437 1433 1430 1426 1422 1418 1416 1414 1412 1409 1407 1404 1402 1399 1396 1394 1393 1392 1393 1393 1394 1395
1509 1506 1502 1497 1493 1488 1484 1480 1477 1474 1469 1464 1460 1457 1454 1450 1446 1442 1438 1437 1434 1431 1428 1424 1420 1415 1412 1408 1406 1403 1401 1399 1397 1394 1391 1389 1388 1387 1386 1386 1386 1387 1388